Tracking 19192 objects as of 19-Jun-2018
HD Live streaming from Space Station
objects crossing your sky now

CHINASAT 2C (ZX 2C)

Track CHINASAT 2C (ZX 2C) now!
CHINASAT 2C (ZX 2C) is classified as:


NORAD ID: 41021
Int'l Code: 2015-063A
Perigee: 35,786.8 km
Apogee: 35,801.7 km
Inclination: 0.1 °
Period: 1,436.1 minutes
Semi major axis: 42165 km
RCS: Unknown
Launch date: November 3, 2015
Source: People's Republic of China (PRC)
Launch site: Xichang Space Center, China (XSC)

CHINASAT 2C (ZX 2C) is a Chinese geostationary satellite, believed to be a military communications spacecraft.
aabbcc
Your satellite tracking list
Your tracking list is empty




NASA's NSSDC Master Catalog

Two Line Element Set (TLE):
1 41021U 15063A   18169.93111914 -.00000340 +00000-0 +00000-0 0  9995
2 41021 000.0579 103.9760 0001768 283.2010 318.5740 01.00269931009722
Source of the keplerian elements: AFSPC